Location: Kalberh�ni
(46.4610°N, 7.2453°E)
Time: 17:23:09
(UTC+00:00)

Meteor 2-1 Rocket - Pass Details

Date: 30 October 2021
Orbit: 830 x 906 km, 81.3° (Epoch: 28 November)

Event Time Altitude Azimuth Distance (km) Brightness Sun altitude
Rises 03:56:52 0° 0° (N) 3,390 7.4 -23.3°
Reaches altitude 10° 04:00:00 10° 18° (NNE) 2,458 6.9 -22.8°
Maximum altitude 04:03:56 19° 63° (ENE) 1,893 6.8 -22.1°
Drops below altitude 10° 04:07:51 10° 108° (ESE) 2,472 7.6 -21.5°
Sets 04:11:00 0° 126° (SE) 3,416 8.2 -20.9°
